Weather History for LGKZ - October, 2012

Change the Weather History Date:

Sunday, October 21, 2012

  Actual Average Record
Temperature  
Mean Temperature 60 °F -  
Max Temperature 69 °F - - ()
Min Temperature 51 °F - - ()
Degree Days  
Heating Degree Days 5    
Growing Degree Days 10 (Base 50)    
Moisture  
Dew Point 47 °F    
Average Humidity 70    
Maximum Humidity 94    
Minimum Humidity 40    
Precipitation  
Precipitation 0.00 in - - ()
Sea Level Pressure  
Sea Level Pressure 30.10 in    
Wind  
Wind Speed 4 mph ()    
Max Wind Speed 8 mph    
Max Gust Speed -    
Visibility 6.2 miles    
Events      
T = Trace of Precipitation, MM = Missing Value Source: Averaged Metar Reports

Daily Weather History Graph

Daily Weather History Graph

Search for Another Location

Airport or City:

Trip Planner

Search our weather history database for the weather conditions in past years. The results will help you decide how hot, cold, wet, or windy it might be!

Date:

Astronomy

Oct. 21, 2012 Rise Set
Actual Time 7:50 AM EEST 6:43 PM EEST
Civil Twilight 7:22 AM EEST 7:11 PM EEST
Nautical Twilight 6:50 AM EEST 7:43 PM EEST
Astronomical Twilight 6:19 AM EEST 8:14 PM EEST
Moon 1:58 PM EEST (10/21) No Moon Set
Length of Visible Light 11h 48m
Length of Day
10h 53m
Waxing Crescent, 41% of the Moon is Illuminated
Oct 21
Waxing Crescent
Oct 22
First Quarter
Oct 29
Full
Nov 7
Last Quarter
Nov 14
New

Hourly Weather History & Observations

Time (EEST) Temp. Dew Point Humidity Pressure Visibility Wind Dir Wind Speed Gust Speed Precip Events Conditions
12:20 AM 55.4 °F 44.6 °F 67% 30.09 in - NNW 4.6 mph - N/A   Unknown
12:50 AM 55.4 °F 44.6 °F 67% 30.09 in - Variable 2.3 mph - N/A   Unknown
1:20 AM 55.4 °F 44.6 °F 67% 30.09 in - Variable 2.3 mph - N/A   Unknown
1:50 AM 57.2 °F 44.6 °F 63% 30.09 in - NW 5.8 mph - N/A   Unknown
2:20 AM 53.6 °F 42.8 °F 67% 30.09 in - Variable 3.5 mph - N/A   Unknown
2:50 AM 53.6 °F 44.6 °F 72% 30.12 in - Variable 1.2 mph - N/A   Unknown
3:20 AM 51.8 °F 46.4 °F 82% 30.12 in - Variable 2.3 mph - N/A   Unknown
3:50 AM 55.4 °F 48.2 °F 77% 30.09 in - WNW 6.9 mph - N/A   Unknown
4:20 AM 53.6 °F 46.4 °F 77% 30.12 in - NW 6.9 mph - N/A   Unknown
4:50 AM 53.6 °F 48.2 °F 82% 30.12 in - NNW 8.1 mph - N/A   Unknown
5:20 AM 53.6 °F 50.0 °F 88% 30.12 in - NNW 6.9 mph - N/A   Unknown
5:50 AM 53.6 °F 50.0 °F 88% 30.12 in - NNW 5.8 mph - N/A   Unknown
6:20 AM 53.6 °F 50.0 °F 88% 30.12 in - NNW 6.9 mph - N/A   Unknown
6:50 AM 53.6 °F 50.0 °F 88% 30.12 in - NNW 8.1 mph - N/A   Unknown
7:20 AM 51.8 °F 50.0 °F 94% 30.12 in - NW 6.9 mph - N/A   Unknown
7:50 AM 51.8 °F 50.0 °F 94% 30.12 in - NNW 4.6 mph - N/A   Unknown
8:20 AM 51.8 °F 48.2 °F 88% 30.12 in - Variable 2.3 mph - N/A   Unknown
8:50 AM 53.6 °F 50.0 °F 88% 30.12 in - Variable 1.2 mph - N/A   Unknown
9:20 AM 53.6 °F 50.0 °F 88% 30.15 in - Variable 3.5 mph - N/A   Unknown
9:50 AM 57.2 °F 51.8 °F 82% 30.15 in - West 4.6 mph - N/A   Unknown
10:20 AM 57.2 °F 51.8 °F 82% 30.15 in - Variable 3.5 mph - N/A   Unknown
10:50 AM 59.0 °F 51.8 °F 77% 30.15 in - North 4.6 mph - N/A   Unknown
11:20 AM 60.8 °F 51.8 °F 72% 30.15 in - NNW 4.6 mph - N/A   Unknown
11:50 AM 64.4 °F 53.6 °F 68% 30.15 in - Variable 3.5 mph - N/A   Unknown
12:20 PM 64.4 °F 51.8 °F 64% 30.12 in - Variable 3.5 mph - N/A   Unknown
12:50 PM 66.2 °F 50.0 °F 56% 30.12 in - Variable 2.3 mph - N/A   Unknown
1:20 PM 66.2 °F 50.0 °F 56% 30.12 in - ESE 4.6 mph - N/A   Unknown
1:50 PM 68.0 °F 48.2 °F 49% 30.09 in - Variable 3.5 mph - N/A   Unknown
2:20 PM 68.0 °F 48.2 °F 49% 30.09 in - Variable 2.3 mph - N/A   Unknown
2:50 PM 69.8 °F 46.4 °F 43% 30.09 in 6.2 mi Variable 4.6 mph - N/A   Partly Cloudy
3:50 PM 69.8 °F 44.6 °F 40% 30.06 in 6.2 mi North 4.6 mph - N/A   Partly Cloudy
4:50 PM 69.8 °F 44.6 °F 40% 30.06 in 6.2 mi Calm Calm - N/A   Partly Cloudy
5:50 PM 68.0 °F 48.2 °F 49% 30.06 in 6.2 mi ESE 4.6 mph - N/A   Partly Cloudy
6:50 PM 62.6 °F 46.4 °F 55% 30.06 in 6.2 mi Calm Calm - N/A   Partly Cloudy
7:50 PM 59.0 °F 46.4 °F 63% 30.06 in 6.2 mi Calm Calm - N/A   Partly Cloudy
8:50 PM 55.4 °F 46.4 °F 72% 30.06 in 6.2 mi Calm Calm - N/A   Partly Cloudy
9:20 PM 53.6 °F 44.6 °F 72% 30.06 in - Variable 2.3 mph - N/A   Unknown
9:50 PM 53.6 °F 42.8 °F 67% 30.06 in - North 5.8 mph - N/A   Unknown
10:20 PM 53.6 °F 41.0 °F 62% 30.09 in - North 5.8 mph - N/A   Unknown
10:50 PM 53.6 °F 41.0 °F 62% 30.09 in - North 4.6 mph - N/A   Unknown
11:20 PM 53.6 °F 41.0 °F 62% 30.09 in - NNW 5.8 mph - N/A   Unknown
11:50 PM 51.8 °F 42.8 °F 71% 30.09 in - Variable 3.5 mph - N/A   Unknown